Regional Weather Roundup
Issued by NWS Goodland, KS

Home | Current Version | Previous Version | Text Only | Print | Product List | Glossary On
Versions: 1 2 3 4 5 6 7 8 9 10 11 12 13 14 15 16 17 18 19 20 21 22 23 24 25 26 27 28 29 30 31 32 33 34 35 36 37 38 39 40 41 42 43 44 45 46 47 48 49 50
000
ASUS43 KGLD 050508
RWRGLD

GOODLAND FORECAST AREA HOURLY WEATHER ROUNDUP
NATIONAL WEATHER SERVICE GOODLAND KS
1100 PM MDT TUE AUG 04 2015

...OFFICIAL OBSERVATIONS...

CITY           SKY/WX    TMP DP  RH WIND       PRES   REMARKS
GOODLAND KS    CLEAR     67  63  87 S6        30.04R
HILL CITY KS   MOCLDY    67  66  97 N8        29.98R
IMPERIAL NEB   PTCLDY    62  60  93 CALM      30.05S
MCCOOK NEB     PTCLDY    63  61  93 CALM      30.02R
AKRON CO       PTCLDY    66  57  72 S8        30.11R
BURLINGTON CO  CLEAR     66  62  87 S8        30.09R
LIMON CO       PTCLDY    56  53  90 N3        30.19R
$$

...UNOFFICIAL OBSERVATIONS...

CITY           SKY/WX    TMP DP  RH WIND       PRES   REMARKS
SHARON SPRINGS   N/A     68  64  88 CALM        N/A
KIT CARSON CO    N/A     68  62  80 MISG        N/A
YUMA CO          N/A     62  57  85 CALM        N/A
$$


USA.gov is the U.S. government's official web portal to all federal, state and local government web resources and services.